Погода в Сыктывкаре

Погода в Сыктывкаре : погода сейчас, прогноз погоды и архив. Всё, что Вы хотите узнать о погоде в Сыктывкаре!

Поиск расширенной информации на нашем сайте:

Другие новости

Новости СМИ2

Главная страница сайта

Новости сайта

03.07.2017

Напоминаем, что на нашем специализированном сайте Метеоцентр.Азия вы можете получить высокодетализированные автоматические прогнозы погоды по пунктам России, СНГ и мира в авиационном формате (включающие направление и скорость ветра, видимость, явления погоды, количество и форму облачности, нижнюю и верхнюю границу облачности).


Погода в Сыктывкаре - сегодня

Время (UTC), дата Ветер
(°,м/с) 
Видим.   Явления Облачность Т
(°С)
Тd
(°С)
f(%) Тe
(°С)
Pmin
(гПа)
dP
(гПа)
Po
(мм)
O2
(г/м3)
Тmin Tmax R s Состояние
почвы
03 22.11.17 020 (С) 10 км  слаб. снег  10/10 150 м 
[St]
-0.6 -0.8 99 1009.2  0.4  746  301  -0.8    31  равномерный
сухой снег
100% 
06 22.11.17 050 (СВ) 10 км  слаб. снег  10/10 120 м 
[Frnb]
-0.4 -0.5 99 1009.7  0.4  746  301           
09 22.11.17 120 (ЮВ) 10 км  слаб. снег  10/10 180 м 
[Frnb]
+0.3 +0.3 100 +1  1010.2  0.3  747  300           
12 22.11.17 120 (ЮВ) 4000 м  дымка{снег}  10/10 150 м 
[St]
+0.4 +0.2 99 1009.2  -0.7  746  300           
15 22.11.17 140 (ЮВ) 10 км  дымка  10/10 240 м 
[Frnb]
+0.3 +0.2 99 1009  -0.2  746  300    +0.4  0.8     
18 22.11.17 140 (ЮВ) 10 км  дымка  10/10 270 м 
[Frnb]
-0.4 -0.7 98 -1  1008.8  -0.2  746  301           
21 22.11.17 130 (ЮВ) 10 км  дымка  10/10 270 м 
[Frnb]
-1 -1.5 96 -2  1008.4  -0.5  745  302           
00 23.11.17 120 (ЮВ) 10 км  дымка  10/10 240 м 
[Frnb]
-2.6 -2.9 98 -4  1007.9  -0.6  745  303           
03 23.11.17 120 (ЮВ) 10 км    10/8 1140 м средняя 
[Sc|Ac und]
-3.1 -3.6 96 -3  1007.6  -0.2  745  304  -3.2      30  равномерный
сухой снег
100% 
06 23.11.17 200 (Ю) 20000 м    10/0 
[]
-2.6 -3.1 96 -2  1008.8  1.2  746  304           
09 23.11.17 тихо ()   20000 м    10/10 210 м 
[Frnb]
-2 -2.4 97 -2  1008.8  746  303           
12 23.11.17 300 (СЗ) 10 км  слаб. снег{дождь}  10/10 150 м 
[Frnb]
-2.1 -2.5 97 -2  1009.7  0.9  746  303           
15 23.11.17 290 (З) 10 км  в посл. час дождь{снег} [диам. гололёда 2 мм]  10/10 210 м 
[Frnb]
-2.1 -2.4 98 -3  1011.2  1.5  747  304    -1.9  0.0     
18 23.11.17 290 (З) 10 км  слаб. снег [диам. гололёда 2 мм]  10/8 360 м средняя 
[Sc|Ac trans]
-5.5 -6.2 95 -7  1014  2.5  749  309           
21 23.11.17 290 (З) 10 км  {снег} [диам. гололёда 2 мм]  10/10 270 м 
[Frnb]
-7.4 -7.8 97 -7  1016.7  2.6  751  312           
00 24.11.17 300 (СЗ) 10 км  слаб. снег  10/10 420 м 
[Sc]
-10.3 -11.3 92 -12  1020.1  3.2  754  317           
03 24.11.17 300 (СЗ) 10 км  слаб. снег [диам. гололёда 2 мм]  4/0 средняя, верхняя 
[As trans|Ci fib]
-12.7 -13.6 93 -13  1023.1  2.7  756  321  -12.7    0.3  29  равномерный
сухой снег
100% 
06 24.11.17 290 (З) 20000 м  {снег} [диам. гололёда 2 мм]  6/0 верхняя 
[Ci fib]
-14 -14.7 94 -14  1025.7  2.6  758  323  -14.4         
09 24.11.17 330 (СЗ) 10 км  слаб. снег [диам. гололёда 2 мм]  10/0 средняя, верхняя 
[As trans|Ci fib]
-12.1 -13.8 87 -12  1027  1.3  759  321           
12 24.11.17 тихо ()   20000 м  {снег} [диам. гололёда 2 мм]  10/0 средняя, верхняя 
[Ac lent|Ci fib]
-14.1 -14.8 94 -14  1028  0.9  759  324           
15 24.11.17 тихо ()   10 км  [диам. гололёда 2 мм]  3/0 средняя 
[Ac trans]
-16.2 -17 94 -16  1028.9  0.7  760  327    -11.9       
18 24.11.17 тихо ()   10 км  [диам. сложн. отлож. 2 мм]  4/0 средняя, верхняя 
[Ac trans|Ci fib]
-16.8 -17.8 92 -17  1029.3  0.4  760  328           
21 24.11.17 360 (С) 10 км  [диам. сложн. отлож. 4 мм]  3/0 верхняя 
[Ci fib]
-16.3 -17.4 91 -16  1028.7  -0.5  760  327           
00 25.11.17 тихо ()   10 км  [диам. сложн. отлож. 4 мм]  ясно 
-17.2 -18.4 90 -17  1028.7  0.1  760  328           
03 25.11.17 тихо ()   10 км    6/0 средняя, верхняя 
[Ac trans|Ci fib]
-14.3 -15.3 92 -14  1028.6  -0.1  760  324  -17.4         
Время (UTC), дата Ветер
(°,м/с) 
Видим.   Явления Облачность Т
(°С)
Тd
(°С)
f(%) Тe
(°С)
Pmin
(гПа)
dP
(гПа)
Po
(мм)
O2
(г/м3)
Тmin Tmax R s Состояние
почвы

Для получения пояснительной информации подведите курсор к названию столбца.

ПОГОДА в Сыктывкаре - архив

Всё, что Вы хотите узнать о погоде в Сыктывкаре - удобно и подробно!

Выберите нужную дату (начиная с 1 января 2015* года) и нажмите кнопку "Найти".
Будут отображены архивные сводки погоды по пункту Сыктывкар, начиная с указанной даты.


Отображать данные в формате CSV (для использования в таблицах Excel)


Внимание! Наш архив погоды предназначен исключительно для личного некоммерческого использования в познавательных целях. Если Вам необходимы официальные справки о состоянии погоды (для производственных, юридических, коммерческих и т.п. целей), обращайтесь в органы Росгидромета.

*Примечание: данная дата относится к архиву по метеостанциям СССР (Россия, СНГ, Балтия).
Архив по метеостанциям Зарубежной Европы и Азии (кроме Китая) хранится 10 дней, по другим регионам земного шара (Китай, Африка, Америка, Австралия, Океания) - 1 день.

Сыктывкар - район местоположения метеостанции


Название, широта, долгота, высота метеостанции:
Сыктывкар (город) 61.7°ш. 50.8°д. 104 м над ур. моря [Российская Федерация]

Дополнительная информация

В oтличие oт бoльшинства пoгoдных сайтoв мы публикуем пoдрoбную метеoинфoрмацию в детальнoм прoфессиoнальнoм фoрмате.

Характеристики температуры и влажнoсти вoздуха измеряются на высoте 2 м в тени вдали oт зданий и деревьев.
Скoрoсть ветра измеряется на высoте 10 м (на урoвне рoста челoвека скoрoсть ветра ниже в 1.5-2 раза). Если метеoстанция нахoдится в гoрoде или в лесу, тo скoрoсть ветра занижена на 2-4 м/с пo сравнению с oткрытым местoм. Скoрoсть ветра над акватoриями крупных рек и oзёр, а также на вершинах хoлмoв на 2-5 м/с выше, чем в oбычных услoвиях.
Атмoсфернoе давление в разных тoчках местнoсти мoжет значительнo oтличаться oт давления на метеoстанции, в зависимoсти oт услoвий рельефа (при пoдъёме на 10 м давление пoнижается примернo на 1 мм рт.ст.).